Regional Weather Roundup
Issued by NWS Wakefield, VA

Current Version | Previous Version | Text Only | Print | Product List | Glossary Off
Versions: 1 2 3 4 5 6 7 8 9 10 11 12 13 14 15 16 17 18 19 20 21 22 23 24 25 26 27 28 29 30 31 32 33 34 35 36 37 38 39 40 41 42 43 44 45 46 47 48 49 50

000
ASUS41 KAKQ 182116
RWRAKQ

REGIONAL WEATHER ROUNDUP
NATIONAL WEATHER SERVICE WAKEFIELD VA
500 PM EDT SUN AUG 18 2019

Note: "fair" indicates few or no clouds below 12,000 feet with no
significant weather and/or obstructions to visibility. * = Denotes
station may not report precipitation (e.g., rain,snow,etc.),
thunder or fog.

VAZ042-051-052>054-056-182200-
NORTHERN VIRGINIA

CITY           SKY/WX    TMP DP  RH WIND       PRES   REMARKS
WASH NATIONAL  FAIR      95  70  44 S8        29.95F HX 101
DULLES         FAIR      93  68  43 VRB6      29.96F HX  97
FORT BELVOIR   FAIR      95  65  37 SE7       29.95S HX  97
QUANTICO       FAIR      91  74  57 S8        29.97R HX 100
FREDERICKSBRG* FAIR      94  74  53 E9        29.95S HX 104
STAFFORD*      FAIR      95  71  45 E9        30.01R HX 101
WARRENTON      FAIR      92  70  48 S9        29.98R THUNDER HX  97
CULPEPER*      FAIR      89  68  50 E7        29.98R
MANASSAS*      FAIR      92  71  50 S13       29.96S HX  98
LEESBURG*      FAIR      95  70  43 S8        29.97S HX 101
WINCHESTER       N/A    N/A N/A N/A MISG        N/A
FRONT ROYAL*   FAIR      91  72  52 S6        29.97S HX  98
LURAY*         MOCLDY    93  66  40 S8        29.98S HX  96
$$

VAZ048-049-060>072-079>083-182200-
CENTRAL AND SOUTH CENTRAL VIRGINIA

CITY           SKY/WX    TMP DP  RH WIND       PRES   REMARKS
RICHMOND       FAIR      92  70  48 S5        29.96F HX  97
CHESTERFIELD*  FAIR      91  71  51 SE6       29.97F HX  97
PETERSBURG*    FAIR      91  69  49 S3        29.98S HX  95
HANOVER        FAIR      93  69  45 CALM      29.97F HX  98
TAPPAHANNOCK*  FAIR      91  73  55 NE5       29.97F HX 100
QUINTON*       FAIR      91  70  50 SE3       29.96S HX  96
CHARLOTTSVILLE FAIR      93  71  48 S9        29.98S HX 100
GORDONSVILLE*  FAIR      94  70  46 SW7       29.97S HX 100
ORANGE*        FAIR      91  72  52 S5        29.97S HX  98
LOUISA*        FAIR      92  69  47 SW6       30.02S HX  97
BUMPASS*       FAIR      93  67  43 S5        29.97S HX  96
FARMVILLE*     FAIR      94  69  43 S3        29.96F HX  99
CREWE*         FAIR      91  67  45 SW3       29.98S
FORT PICKETT*  MOCLDY    92  72  51 SE7       29.98S HX  99
CHASE CITY*    FAIR      92  70  47 S6        29.99S HX  98
CLARKSVILLE*   FAIR      93  72  49 S5        29.98S HX 100
SOUTH HILL*    FAIR      88  75  64 SE3       30.04F HX  98
LAWRENCEVILLE* FAIR      90  70  52 CALM      29.99F HX  95
EMPORIA*       FAIR      90  72  55 SE3       29.99S HX  96
$$

VAZ088>098-182200-
SOUTHEAST VIRGINIA

CITY           SKY/WX    TMP DP  RH WIND       PRES   REMARKS
NORFOLK        FAIR      87  76  69 NE8       29.97F HX  97
VIRGINIA BEACH FAIR      83  72  69 E8        29.97F
NORFOLK NAVAL  FAIR      86  74  67 E8        29.98F
WEST POINT*    FAIR      89  74  60 SE7       29.97F HX  98
SALUDA*        FAIR      86  79  79 E7        29.97F HX 100
NEWPORT NEWS   FAIR      88  73  61 NE3       29.97F HX  95
LANGLEY AFB    MOSUNNY   86  76  73 E5        29.98F HX  96
FORT EUSTIS    FAIR      88  67  49 SW3       29.95F
WILLIAMSBURG*  FAIR      90  73  58 CALM      29.98F HX  98
HR EXEC AP*    FAIR      88  75  65 CALM      29.97F HX  97
FRANKLIN*      FAIR      90  70  51 CALM      29.97F HX  95
US460-WAKEFLD  FAIR      91  71  51 CALM      29.97F HX  97
$$

VAZ020-022-025-037-045-182200-
WEST CENTRAL AND SOUTHWEST VIRGINIA

CITY           SKY/WX    TMP DP  RH WIND       PRES   REMARKS
STAUNTON*      FAIR      90  68  47 S8        30.03S
WAYNESBORO*    FAIR      84  68  57 S3        30.03S
HOT SPRINGS VA FAIR      81  64  57 S5        30.19F
LYNCHBURG      SUNNY     93  64  38 VRB5      30.01S HX  95
DANVILLE       FAIR      93  67  42 SW5       29.99F HX  96
SOUTH BOSTON*  FAIR      89  69  51 S3        29.98S
MARTINSVILLE   FAIR      93  72  49 S5        30.03S HX 100
ROANOKE        FAIR      92  64  39 S8        30.02F
BLACKSBURG     NOT AVBL
DUBLIN*        PTSUNNY   87  64  46 SW10      30.08S
MARION*        FAIR      87  69  54 W6        30.13F
HILLSVILLE*    FAIR      84  64  50 S3        30.11F
RICHLANDS*     FAIR      85  61  43 SW8       30.11F
WISE*          NOT AVBL
ABINGDON*      FAIR      87  66  50 N3        30.08F
$$

MDZ021>025-VAZ099-100-182200-
SOUTHERN MARYLAND AND THE DELMARVA PENINSULA

CITY           SKY/WX    TMP DP  RH WIND       PRES   REMARKS
PATUXENT RIVER FAIR      87  73  62 SE9G18    29.96F
BAY BRIDGE APT FAIR      93  70  46 SE8       29.98R HX  99
LEONARDTOWN    FAIR      90  70  51 SE5       29.98F HX  95
DOVER          FAIR      88  73  61 E12       29.97F HX  95
GEORGETOWN     FAIR      88  73  61 S7        29.98F HX  95
EASTON         MOSUNNY   93  72  49 S12       30.00F HX 100
CAMBRIDGE      SUNNY     90  73  58 VRB6      29.97S HX  98
SALISBURY      FAIR      88  73  61 SE9       29.96F HX  95
TANGIER        FAIR      86  75  70 S3        29.97F HX  95
OCEAN CITY     FAIR      81  76  84 S7        30.00F
WALLOPS ISLAND FAIR      85  74  69 S9        29.99F
ACCOMACK*      FAIR      86  75  69 SE5       29.98F
$$

NCZ012>017-030>032-182200-
NORTH CENTRAL AND EASTERN NORTH CAROLINA

CITY           SKY/WX    TMP DP  RH WIND       PRES   REMARKS
ROANOKE RAPIDS FAIR      88  77  70 W5        29.98F HX 100
RALEIGH        FAIR      90  70  51 SE6       29.99F HX  95
ELIZABETH CITY CLOUDY    89  73  59 CALM      29.97F HX  97
AHOSKIE*       FAIR      88  72  59 CALM      29.97F HX  95
EDENTON*       FAIR      89  77  67 W3        29.98F HX 100
CURRITUCK*     FAIR      85  74  68 E6        29.98S
KILL DEVIL HLS FAIR      82  70  68 CALM      29.97F
MANTEO         FAIR      82  74  78 W5        29.99F
CAPE HATTERAS  FAIR      85  76  74 SW7       30.00F
TARBORO*       FAIR      90  71  53 W6        29.97F HX  96
GOLDSBORO      FAIR      87  73  62 SW5       29.98F
WASHINGTON     FAIR      89  72  58 CALM      29.98F HX  95
GREENVILLE     FAIR      88  73  62 CALM      30.00F HX  96
NEW BERN       FAIR      89  77  67 W5        29.99F HX 101
WILMINGTON     FAIR      89  72  56 SW3       29.99F HX  96
$$

VAZ048-182200-
ELSEWHERE

CITY           SKY/WX    TMP DP  RH WIND       PRES   REMARKS
HARRISBURG PA  NOT AVBL
BALTIMORE      FAIR      92  69  47 SE9       29.96S HX  97
ANNAPOLIS      FAIR      91  72  53 SE12      29.97R HX  98
ANDREWS AFB    FAIR      90  71  54 SE6       29.96F HX  96
PHILADELPHIA   PTSUNNY   86  73  65 SW9       29.97F
HENDERSON NC   FAIR      88  69  53 SE5       29.99F
GREENSBORO     FAIR      91  68  46 E3        30.00F HX  95
ROCKY MOUNT    FAIR      90  72  55 S6        29.98F HX  97
$$

VAZ100-182200-
MARINE

STATION/POSITION TIME  TEMP    WIND        PRES    WAVE   SWELL
                       AIR SEA DIR/SP/G            HT/PER HT/PER
                 (UTC) (F)     (DEG/KT/KT) (MB)    (FT/S) (FT/S)
CAPE MAY NJ      2030   80 76  150/  9/ 14 1015.4F
LEWES DE         2024   84 74  140/  9/ 12 1015.7
15NM E FENWICK I 2050   80 80  190/  6/  8 1015.7F   2/ 6   2/ 6
OCEAN-CITY-INLET 2024   81 75  190/  4/  7 1016.5F
44089 WALLOPS IS 2100      79                N/A     2/ 7
WACHAPREAGUE VA  2024   82 88  180/  7/  9 1015.2
THOMAS POINT MD  2100   84 83  160/ 10/ 11 1016.1R
COVE POINT MD    2024   82     180/ 12/ 13 1015.8
SOLOMONS ISLAND  2024   85 85  130/ 11/ 12 1014.5
BISHOPS HEAD MD  2024   84 86  180/  8/  9 1015.6F
PINEY POINT MD   2024          150/ 14/ 15   N/A
CAMBRIDGE MD     2024   89 83  150/  9/ 10 1014.7F
LEWISETTA VA     2024   85 84  110/ 11/ 13 1014.9F
RAPPAHANNOCK LGT 2024                      1016.2
YORK RVR RNG VA  2024   81     140/  6/  6 1016.0
YORKTOWN VA      2024   82 81   90/  6/  8 1015.0
DOMINION TERM VA 2024   83      80/  7/  8 1015.3F
KIPTOPEKE VA     2024      79  190/  6/  7   N/A
CAPE HENRY VA    2024   80     100/  6/  8 1015.3
WILLOUBY STN VA  2024   80      80/  7/  8 1014.6F
S CRANEY ISL VA  2024   85     360/  6/  7 1014.9
CAPE HENRY BUOY  2100      81                N/A     2/ 9
64NM E OF VA BCH 2050   77 81   40/ 12/ 14 1015.0F   4/ 8   3/ 8
DUCK PIER NC     2024   78 74   40/  5/  5 1015.1
44100 DUCK FRF   2100      82                N/A     2/ 8
44056 DUCK FRF   2100      80                N/A     2/ 7
OREGON INLET NC  2024   80 79   10/  7/  8 1015.7R
HATTERAS NC      2024   81 78  280/  6/  8 1016.0F
DIAMOND SHLS NC  2050          250/ 12/ 16 1015.7F   7/ 8   5/ 8
CAPE LOOKOUT NC  2000   82     240/  8/ 11 1016.1F
$$



USA.gov is the U.S. government's official web portal to all federal, state and local government web resources and services.